Volver al catálogo

DELTA 1 DEB

ActivoSSO
NORAD 40771·DEBRIS·🇺🇸 United States

Lanzado Jul 29, 1976 desde Vandenberg Space Force Base

Loading…

Próximos Pases (próximas 24 horas)

TLE

ActualizadoSource: Space-Track

Época: Sep 14, 2026, 10:49 UTC

1 40771U 76077GQ  26257.45090470 -.00000003  00000-0  32154-3 0  9999
2 40771 102.2097 238.5825 0014723  50.2335 104.4937 12.40121241549802

Sigue DELTA 1 DEB en tiempo real con AllMySat

Download on the App Store